Location: *
(47.2969°S, 169.7070°W)
Time: 04:49:31
(UTC+00:00)

Daily predictions for brighter satellites

Satellite Brightness Start Highest point End
(mag) Time Altitude Azimuth Time Altitude Azimuth Time Altitude Azimuth
Cosmos 1980 Rocket 4.3 04:05:28 10° W 04:09:30 19° SW 04:13:33 10° S
STARLINK-1276 4.5 04:08:10 10° NNW 04:12:05 39° NE 04:16:01 10° ESE
CZ-4B R/B 3.2 04:10:23 10° SSE 04:14:44 65° ENE 04:19:12 10° N
STARLINK-1291 3.2 04:11:53 10° WNW 04:15:16 75° SSW 04:18:42 10° ESE
STARLINK-1317 3.4 04:12:09 10° WNW 04:15:45 72° SSW 04:19:23 10° ESE
Meteor PRIRODA 3.9 04:12:25 10° SSE 04:16:04 49° E 04:19:42 10° N
STARLINK-1305 4.4 04:13:05 10° NNW 04:17:02 42° NE 04:21:02 10° ESE
STARLINK-1264 3.2 04:13:46 10° WNW 04:17:10 73° SSW 04:20:36 10° ESE
SKYMED 2 3.6 04:13:16 10° NNE 04:17:37 68° ESE 04:22:02 10° S
STARLINK-33 3.5 04:15:32 10° W 04:18:45 51° SSW 04:21:59 10° ESE
STARLINK-1267 3.2 04:15:40 10° WNW 04:19:05 71° SSW 04:22:32 10° ESE
STARLINK-1278 4.2 04:16:07 10° NW 04:20:19 52° NE 04:24:33 10° ESE
STARLINK-1272 3.3 04:17:33 10° WNW 04:20:58 69° SSW 04:24:25 10° ESE
STARLINK-64 3.5 04:18:04 10° NW 04:21:38 59° NE 04:25:12 10° ESE
STARLINK-1262 4.3 04:18:00 10° NW 04:22:00 45° NE 04:26:02 10° ESE
STARLINK-1280 4.1 04:17:57 10° NW 04:22:10 53° NE 04:26:24 10° ESE
STARLINK-1207 3.3 04:19:28 10° WNW 04:22:53 67° SSW 04:26:18 10° ESE
Cosmos 1844 3.8 04:17:35 10° SSW 04:23:14 82° WNW 04:28:49 10° NNE
Cosmos 1340 2.7 04:19:32 10° N 04:23:17 61° E 04:27:07 10° SSE
Cosmos 2219 Rocket 2.6 04:19:16 10° N 04:24:40 46° ENE 04:30:07 10° SE
STARLINK-1266 3.3 04:21:25 10° WNW 04:24:51 66° SSW 04:28:11 11° ESE
ALOS 2.3 04:20:34 10° SSE 04:25:21 79° ENE 04:30:04 10° N
Iridium 4 Rocket 3.7 04:19:57 10° N 04:25:25 81° W 04:30:28 10° S
H-2A R/B 2.5 04:21:33 10° SSE 04:25:45 59° ENE 04:29:43 10° N
Starlink 7 placeholder 3.7 04:23:47 10° WSW 04:26:47 50° NW 04:29:39 10° NE
STARLINK-1284 3.3 04:23:24 10° WNW 04:26:49 64° SSW 04:30:05 11° ESE
STARLINK-1300 4.2 04:22:53 10° NW 04:26:56 49° NE 04:30:50 11° ESE
STARLINK-66 3.6 04:24:17 10° W 04:27:28 46° SSW 04:30:29 11° SE
Cosmos 1680 Rocket 4.2 04:23:12 10° NNE 04:27:56 34° ENE 04:32:41 10° SE
Shenzhou-11 Module 3.8 04:26:44 10° NNW 04:28:36 18° NNE 04:30:27 10° ENE
STARLINK-1258 3.4 04:25:20 10° WNW 04:28:44 62° SSW 04:31:55 12° ESE
CZ-4B R/B 4.3 04:25:59 10° S 04:30:02 63° WSW 04:33:51 10° NNW
Cosmos 923 Rocket 4.4 04:25:32 10° N 04:30:38 47° ENE 04:35:49 10° SSE
STARLINK-1292 3.4 04:27:18 10° WNW 04:30:43 61° SSW 04:33:49 12° ESE
Meteor 2-6 Rocket 4.2 04:25:22 10° S 04:30:49 60° ESE 04:36:19 10° NNE
STARLINK-1295 4.0 04:27:50 10° NW 04:31:56 53° NE 04:35:39 12° ESE
STARLINK-52 3.1 04:29:07 10° WSW 04:32:23 60° SSE 04:35:39 10° ENE
STARLINK-1274 3.4 04:29:19 10° WNW 04:32:43 59° SSW 04:35:45 13° ESE
STARLINK-1338 4.0 04:29:58 10° WSW 04:33:25 37° SSE 04:36:25 13° ESE
CZ-4C R/B 4.2 04:28:01 10° WSW 04:33:39 23° SSW 04:38:38 10° SSE
STARLINK-1289 3.5 04:31:21 10° WNW 04:34:45 58° SSW 04:37:43 13° SE
Cosmos 1782 3.1 04:31:58 10° SSW 04:36:01 76° W 04:40:03 10° N
FALCON 9 DEB 3.4 04:32:47 10° WSW 04:36:17 51° SSE 04:39:35 11° E
Cosmos 1500 Rocket 3.6 04:32:02 10° N 04:36:27 86° W 04:40:53 10° S
STARLINK-1303 3.5 04:33:19 10° WNW 04:36:44 56° SSW 04:39:37 14° SE
STARLINK-1287 3.9 04:32:45 10° NW 04:36:52 57° NE 04:40:24 14° ESE
STARLINK-75 3.7 04:35:26 10° W 04:38:34 43° SSW 04:41:08 14° SE
STARLINK-1312 3.5 04:35:20 10° W 04:38:44 55° SSW 04:41:32 14° SE
STARLINK-1371 4.0 04:35:21 10° WSW 04:38:50 38° SSE 04:41:37 14° ESE
Cosmos 1862 3.8 04:35:05 10° NNE 04:38:54 42° E 04:42:49 10° SSE
Cosmos 2322 Rocket 3.7 04:36:13 10° WNW 04:41:23 33° SW 04:46:35 10° SSE
SL-4 R/B 2.6 04:37:54 10° WSW 04:41:31 53° NNW 04:45:21 10° NE
STARLINK-1341 4.0 04:38:01 10° WSW 04:41:32 39° SSE 04:44:13 15° ESE
STARLINK-1374 3.9 04:40:38 10° WSW 04:44:08 40° SSE 04:46:42 16° ESE
STARLINK-58 3.3 04:42:05 10° WNW 04:45:17 59° SSW 04:47:38 17° SE
Envisat 4.2 04:41:35 10° SE 04:45:34 22° E 04:49:30 10° NE
Cosmos 1238 Rocket 4.1 04:43:05 10° NE 04:46:26 22° E 04:48:23 15° SE
Cosmos 1805 Rocket 3.6 04:42:25 10° N 04:46:46 59° E 04:51:11 10° SSE
STARLINK-1302 3.8 04:42:38 10° NW 04:46:48 66° NE 04:49:59 17° ESE
STARLINK-1339 3.9 04:43:18 10° WSW 04:46:51 41° SSE 04:49:19 17° ESE
STARLINK-22 3.7 04:45:01 10° W 04:48:11 45° SSW 04:50:24 18° SE
STARLINK-1377 3.9 04:45:40 10° WSW 04:49:11 41° SSE 04:51:30 18° ESE
Cosmos 2123 Rocket 4.1 04:44:02 10° S 04:50:20 84° W 04:56:36 10° N
STARLINK 1040 4.1 04:49:25 10° WSW 04:51:41 23° S 04:52:48 18° SSE
STARLINK-1273 3.7 04:47:36 10° NW 04:51:47 71° NNE 04:54:46 19° ESE
STARLINK-1353 3.8 04:48:20 10° WSW 04:51:52 42° SSE 04:54:05 20° ESE
Meteor 1-27 Rocket 4.0 04:46:44 10° S 04:52:29 50° ESE 04:58:15 10° NNE
USA 234 3.5 04:47:01 12° SE 04:53:12 69° SSW 04:59:46 10° WNW
STARLINK-1320 3.5 04:50:16 10° SW 04:53:21 41° SSE 04:54:59 22° ESE
Cosmos 1812 2.9 04:49:39 10° S 04:53:31 50° ESE 04:57:18 10° NNE
STARLINK-1322 3.5 04:50:35 10° SW 04:53:40 41° SSE 04:55:17 22° ESE
STARLINK-80 4.0 04:50:05 10° W 04:53:51 48° SSW 04:56:25 19° SE
STARLINK-1324 3.5 04:50:57 10° SW 04:54:01 41° SSE 04:55:38 22° ESE
STARLINK-1294 3.5 04:51:18 10° SW 04:54:21 41° SSE 04:55:55 23° ESE
STARLINK-43 4.4 04:50:57 10° WSW 04:54:24 34° S 04:56:34 19° SE
STARLINK-1261 3.5 04:51:37 10° SW 04:54:41 41° SSE 04:56:16 23° ESE
STARLINK-1375 3.8 04:51:21 10° WSW 04:54:55 43° SSE 04:57:03 21° ESE
STARLINK-1325 3.5 04:51:56 10° SW 04:55:00 41° SSE 04:56:35 23° ESE
COSMOS 2428 2.7 04:49:38 10° NNW 04:55:21 71° ENE 05:01:09 10° SSE
STARLINK-1333 3.5 04:52:19 10° SW 04:55:24 41° SSE 04:56:57 23° ESE
STARLINK-1334 3.5 04:52:39 10° SW 04:55:43 41° SSE 04:57:16 23° ESE
Cosmos 1461 3.0 04:52:01 10° SSW 04:55:56 47° SE 04:59:42 10° ENE
STARLINK-1326 3.5 04:52:58 10° SW 04:56:04 42° SSE 04:57:35 24° ESE
STARLINK-1323 3.4 04:53:17 10° SW 04:56:22 42° SSE 04:57:54 24° ESE
Helios 1A Rocket 4.5 04:56:56 17° E 04:56:56 17° E 04:59:19 10° NE
STARLINK-1288 3.7 04:52:32 10° NW 04:56:44 76° NNE 04:59:32 21° ESE
STARLINK-1349 3.4 04:53:40 10° SW 04:56:45 42° SSE 04:58:16 24° ESE
STARLINK-1336 3.4 04:53:59 10° SW 04:57:04 42° SSE 04:58:33 24° ESE
STARLINK-1350 3.8 04:53:44 10° WSW 04:57:17 44° SSE 04:59:16 22° ESE
STARLINK-1331 3.4 04:54:22 10° SW 04:57:27 42° SSE 04:58:55 25° ESE
STARLINK-1344 3.4 04:54:42 10° SW 04:57:48 42° SSE 04:59:15 25° ESE
ADEOS Rocket 4.2 04:50:30 10° N 04:58:02 64° W 05:05:53 10° SSW
STARLINK-1343 3.4 04:54:59 10° SW 04:58:05 42° SSE 04:59:32 25° ESE
STARLINK-1346 3.4 04:55:25 10° SW 04:58:28 42° SSE 04:59:50 26° ESE
STARLINK-1328 3.4 04:55:40 10° SW 04:58:46 43° SSE 05:00:11 25° ESE
STARLINK-1354 3.4 04:55:59 10° SW 04:59:05 43° SSE 05:00:29 26° ESE
STARLINK-1347 3.4 04:56:22 10° SW 04:59:27 43° SSE 05:00:51 26° ESE
STARLINK-1357 3.4 04:56:41 10° SW 04:59:47 43° SSE 05:01:09 26° ESE
STARLINK-1352 3.7 04:56:28 10° WSW 05:00:02 45° SSE 05:01:54 24° ESE
STARLINK-1335 3.4 04:57:05 10° SW 05:00:11 43° SSE 05:01:32 27° ESE
STARLINK-1327 3.4 04:57:21 10° SW 05:00:27 44° SSE 05:01:48 27° ESE
STARLINK-1340 3.4 04:57:42 10° SW 05:00:48 44° SSE 05:02:08 27° ESE
ATLAS 5 CENTAUR R/B 3.5 04:54:56 10° N 05:01:04 31° ENE 05:04:51 19° ESE
STARLINK-1356 3.4 04:58:02 10° SW 05:01:08 44° SSE 05:02:27 27° ESE
STARLINK-1345 3.4 04:58:22 10° SW 05:01:29 44° SSE 05:02:47 27° ESE
STARLINK-1308 3.6 04:57:32 10° NW 05:01:45 82° NNE 05:04:21 23° ESE
STARLINK-1355 3.4 04:58:42 10° SW 05:01:49 44° SSE 05:03:06 27° ESE
STARLINK-1321 3.4 04:59:04 10° SW 05:02:10 44° SSE 05:03:27 28° ESE
STARLINK-1358 3.3 04:59:23 10° SW 05:02:29 44° SSE 05:03:45 28° ESE
STARLINK-1283 4.1 04:58:59 10° W 05:02:42 44° SSW 05:04:52 22° SE
STARLINK-1368 3.7 04:59:13 10° WSW 05:02:48 46° SSE 05:04:33 25° ESE
STARLINK-1332 3.3 04:59:47 10° SW 05:02:54 45° SSE 05:04:08 28° ESE
STARLINK-1348 3.3 05:00:05 10° SW 05:03:11 45° SSE 05:04:26 29° ESE
STARLINK-60 4.4 05:00:21 10° WSW 05:03:25 38° NW 05:06:28 10° NNE
Cosmos 1624 Rocket 4.1 04:58:17 10° SSW 05:03:29 54° ESE 05:08:38 10° NE
STARLINK-1330 3.3 05:00:23 10° SW 05:03:30 45° SSE 05:04:43 29° ESE
STARLINK-1311 3.8 05:01:03 10° W 05:03:55 35° SSW 05:05:12 24° SSE
STARLINK-1363 3.3 05:00:48 10° SW 05:03:55 45° SSE 05:05:07 29° ESE
STARLINK-1337 3.3 05:01:05 10° SW 05:04:11 45° SSE 05:05:23 29° ESE
STARLINK-1342 3.3 05:01:25 10° SW 05:04:32 45° SSE 05:05:43 30° ESE
Lacrosse 5 rocket 3.5 05:02:49 10° NE 05:04:32 12° ENE 05:04:38 12° ENE
STARLINK-1364 3.3 05:01:44 10° SW 05:04:51 46° SSE 05:06:01 30° ESE
STARLINK-1376 3.3 05:02:07 10° SW 05:05:13 46° SSE 05:06:22 30° ESE
STARLINK-1360 3.3 05:02:26 10° SW 05:05:32 46° SSE 05:06:40 31° ESE
STARLINK-1369 3.7 05:01:59 10° WSW 05:05:34 47° SSE 05:07:13 27° ESE
COSMO-SKYMED 1 4.1 05:01:37 10° NNW 05:05:44 40° W 05:09:56 10° SSW
STARLINK-1361 3.3 05:02:45 10° SW 05:05:51 46° SSE 05:06:59 31° ESE
STARLINK-1367 3.3 05:03:07 10° SW 05:06:12 46° SSE 05:07:16 32° ESE
CZ-4B R/B 3.4 05:01:14 10° SSE 05:06:36 51° E 05:11:59 10° N
STARLINK-1366 3.3 05:03:29 10° SW 05:06:37 47° SSE 05:07:42 31° ESE
Cosmos 1943 Rocket 3.8 05:04:15 10° S 05:07:16 14° SE 05:07:27 14° SE
Cosmos 2237 Rocket 2.8 05:02:38 10° N 05:07:47 36° ENE 05:11:03 20° SE
Cosmos 371 Rocket 4.4 05:04:14 10° S 05:08:10 24° SE 05:08:53 23° ESE
STARLINK-1372 3.6 05:04:45 10° WSW 05:08:22 48° SSE 05:09:53 29° ESE
STARLINK-61 3.5 05:04:31 10° NW 05:08:27 68° NNE 05:10:27 27° ESE
STARLINK-57 4.5 05:05:01 10° NNW 05:08:29 31° NE 05:09:54 24° E
Cosmos 2369 Rocket 4.0 05:06:03 10° S 05:08:32 13° SSE 05:08:42 13° SE
Cosmos 1707 Rocket 3.5 05:04:19 10° S 05:08:50 71° E 05:13:14 10° NNE
STARLINK-1316 3.9 05:07:02 10° W 05:10:03 37° SSW 05:11:15 26° SSE
STARLINK-42 4.1 05:07:01 10° WSW 05:10:03 33° S 05:11:15 25° SSE
Cosmos 1633 4.4 05:07:35 10° NW 05:10:54 32° WSW 05:14:15 10° S
STARLINK-1257 3.9 05:07:58 10° W 05:10:58 36° SSW 05:12:09 26° SSE
SL-16 R/B 4.3 05:06:55 10° W 05:11:05 20° SW 05:15:17 10° S
STARLINK-1378 3.6 05:07:48 10° WSW 05:11:27 50° SSE 05:12:53 31° ESE
STARLINK-27 4.5 05:08:09 10° NNW 05:11:38 31° NE 05:12:53 25° ENE
STARLINK-1304 3.6 05:07:28 10° WNW 05:11:40 89° SW 05:13:54 27° ESE
STARLINK-1256 3.9 05:08:52 10° W 05:11:52 36° SSW 05:13:00 27° SSE
STARLINK-1213 3.9 05:09:46 10° W 05:12:47 36° SSW 05:13:52 27° SSE
STARLINK-74 4.4 05:09:46 10° NNW 05:13:15 32° NE 05:14:28 26° ENE
STARLINK-1263 3.9 05:10:41 10° W 05:13:41 36° SSW 05:14:44 27° SSE
STARLINK-1329 3.6 05:10:05 10° WSW 05:13:43 51° SSE 05:15:02 33° ESE
STARLINK-1379 3.6 05:10:21 10° WSW 05:13:59 51° SSE 05:15:17 33° ESE
STARLINK-1286 3.6 05:09:44 10° WNW 05:13:59 85° SSW 05:16:08 28° ESE
STARLINK-1259 4.0 05:11:35 10° W 05:14:34 35° SSW 05:15:35 28° SSE
STARLINK-39 4.4 05:11:21 10° NNW 05:14:53 33° NE 05:16:02 27° ENE
STARLINK-1265 3.9 05:12:08 10° W 05:15:05 35° SSW 05:16:03 28° SSE
STARLINK-1285 4.0 05:12:29 10° W 05:15:29 35° SSW 05:16:27 28° SSE
STARLINK-1268 4.0 05:13:08 10° W 05:16:06 35° SSW 05:17:02 28° SSE
STARLINK-31 4.3 05:12:57 10° NNW 05:16:31 34° NE 05:17:37 29° ENE
STARLINK-1362 3.5 05:13:15 10° WSW 05:16:57 53° SSE 05:18:12 35° ESE
STARLINK-1365 3.5 05:13:28 10° WSW 05:17:11 54° SSE 05:18:25 35° E
STARLINK-1296 4.0 05:14:20 10° W 05:17:19 35° SSW 05:18:13 29° SSE
STARLINK-1260 4.0 05:15:15 10° W 05:18:13 35° SSW 05:19:04 29° SSE
STARLINK-69 4.2 05:14:39 10° NNW 05:18:17 38° NE 05:19:23 31° ENE
ATLAS CENTAUR R/B 3.5 05:15:44 10° S 05:18:31 15° SSE 05:18:35 15° SSE
Cosmos 1371 Rocket 4.0 05:13:05 10° SSW 05:18:34 81° ESE 05:23:57 10° NNE
STARLINK-1318 4.0 05:16:10 10° W 05:19:09 34° SSW 05:19:57 29° SSE
STARLINK-1373 3.5 05:16:03 10° WSW 05:19:45 54° SSE 05:20:51 38° ESE
STARLINK-21 4.2 05:16:11 10° NNW 05:19:47 37° NE 05:20:47 31° ENE
STARLINK-1275 4.0 05:17:02 10° W 05:20:00 34° SSW 05:20:46 29° SSE
STARLINK-1309 4.0 05:17:55 10° W 05:20:54 34° SSW 05:21:39 30° SSE
STARLINK-45 4.1 05:17:55 10° NNW 05:21:35 41° NE 05:22:35 34° ENE
STARLINK-1282 4.0 05:18:52 10° W 05:21:50 34° SSW 05:22:32 30° SSE
STARLINK-1390 3.4 05:18:44 10° WSW 05:22:25 56° SSE 05:23:22 41° ESE
Cosmos 1862 Rocket 3.8 05:18:20 10° S 05:22:48 49° ESE 05:27:12 10° NNE
STARLINK-1313 4.0 05:19:57 10° WSW 05:22:54 32° SSW 05:23:32 29° SSE
NOSS 3-4 (A) 4.4 05:16:15 10° SW 05:23:00 35° SSE 05:25:49 26° ESE
NOSS 3-4 (C) 4.4 05:16:21 10° SW 05:23:04 35° SSE 05:25:52 26° ESE
STARLINK-70 4.1 05:19:31 10° NNW 05:23:10 41° NE 05:24:06 34° ENE
STARLINK-62 3.9 05:20:06 10° W 05:23:11 38° SSW 05:23:57 33° SSE
SL-16 R/B 3.7 05:19:50 10° NE 05:22:27 18° ENE 05:22:27 18° ENE
STARLINK-1279 4.0 05:20:57 10° WSW 05:23:53 32° S 05:24:28 30° SSE
STARLINK-1048 4.5 05:20:17 10° NNW 05:24:06 35° NE 05:25:03 31° ENE
STARLINK-1298 4.0 05:21:35 10° W 05:24:32 33° SSW 05:25:07 30° SSE
STARLINK-1029 3.7 05:21:28 10° W 05:24:33 43° SSW 05:25:14 36° SSE
STARLINK-76 4.1 05:21:03 10° NNW 05:24:42 40° NE 05:25:32 35° ENE
STARLINK-71 4.1 05:21:01 10° NNW 05:24:53 44° NE 05:25:57 35° ENE
STARLINK-34 3.9 05:22:03 10° W 05:25:08 38° SSW 05:25:50 33° SSE
Cosmos 158 Rocket 3.9 05:20:14 10° NNW 05:25:26 86° ENE 05:30:07 14° SSE
STARLINK-1293 4.0 05:22:31 10° W 05:25:29 33° SSW 05:26:02 31° S
STARLINK-23 4.0 05:22:40 10° NNW 05:26:20 41° NE 05:27:06 36° ENE
STARLINK-1301 4.2 05:23:12 10° W 05:26:31 36° SSW 05:27:22 31° SSE
Cosmos 405 4.2 05:23:34 10° SSW 05:27:00 43° W 05:30:22 10° NNW
STARLINK-55 4.2 05:24:08 10° WSW 05:27:05 30° S 05:27:31 29° S
STARLINK-1255 4.0 05:24:20 10° WSW 05:27:16 33° SSW 05:27:44 31° S
STARLINK-1299 3.9 05:23:38 10° WNW 05:27:57 67° SSW 05:29:38 35° SE
STARLINK-32 4.0 05:24:16 10° NNW 05:27:57 42° NE 05:28:40 38° ENE
Cosmos 2333 Rocket 2.7 05:22:19 10° NW 05:28:03 61° WSW 05:33:32 11° SSE
Okean O Rocket 1.5 05:23:41 10° SSE 05:28:12 80° ENE 05:32:39 10° NNW
STARLINK-1306 3.8 05:24:08 10° WNW 05:28:24 71° SSW 05:30:01 37° SE
H-2A R/B 2.7 05:25:18 14° SSE 05:28:40 87° ENE 05:32:35 10° NNW
Cosmos 2112 Rocket 4.0 05:23:36 10° NNW 05:28:57 89° WSW 05:33:30 15° SSE
STARLINK-1049 4.3 05:25:09 10° NNW 05:29:02 37° NE 05:29:49 34° ENE
STARLINK-40 3.9 05:25:56 10° NW 05:29:38 43° NE 05:30:18 39° ENE
STARLINK-1307 4.1 05:26:33 10° W 05:29:54 36° SSW 05:30:38 33° SSE
Cosmos 2278 Rocket 2.2 05:25:16 10° SSW 05:31:02 87° WNW 05:36:43 10° NNE
STARLINK-44 3.9 05:27:29 10° NW 05:31:12 45° NE 05:31:48 41° ENE
STARLINK-1281 3.7 05:27:24 10° WNW 05:31:37 72° SSW 05:33:02 40° SE
Cosmos 1605 Rocket 4.3 05:25:48 10° NNW 05:32:00 69° W 05:38:13 10° S
STARLINK-29 4.1 05:29:07 10° WSW 05:32:17 43° NW 05:33:59 23° NNE
STARLINK-1290 4.1 05:29:18 10° W 05:32:38 36° S 05:33:15 33° SSE
STARLINK-37 3.8 05:29:17 10° NW 05:33:02 49° NE 05:33:38 44° ENE
STARLINK-1051 4.2 05:30:04 10° NNW 05:34:00 40° NE 05:34:37 38° ENE
Sich 1 3.6 05:29:53 10° NNW 05:34:15 61° WSW 05:38:44 10° S
STARLINK-36 3.8 05:30:44 10° NW 05:34:28 47° NE 05:34:57 44° ENE
STARLINK-1297 4.2 05:31:58 10° W 05:35:18 35° S 05:35:48 34° S
SMAP 3.0 05:32:36 19° SSE 05:35:54 62° E 05:40:34 10° N
STARLINK-26 4.3 05:32:45 10° WSW 05:35:57 31° S 05:36:13 31° S
STARLINK-68 3.6 05:32:31 10° NW 05:36:18 53° NE 05:36:47 49° ENE
STARLINK-1310 3.8 05:32:25 10° WNW 05:36:37 68° SSW 05:37:49 44° SE
STARLINK-28 4.3 05:34:37 10° WSW 05:37:31 29° S 05:37:31 29° S
STARLINK-63 3.6 05:34:07 10° NW 05:37:54 52° NE 05:38:18 50° ENE
STARLINK-35 3.7 05:35:38 10° NW 05:39:24 51° NE 05:39:42 50° NE
STARLINK-41 4.3 05:36:43 10° WSW 05:39:29 29° S 05:39:29 29° S
STARLINK-51 3.6 05:37:18 10° NW 05:41:06 53° NE 05:41:22 52° NE
STARLINK-1319 3.8 05:37:24 10° WNW 05:41:36 64° SSW 05:42:36 47° SE
STARLINK-30 3.6 05:38:56 10° NW 05:42:44 54° NE 05:42:55 54° NE
STARLINK-48 4.1 05:39:23 10° W 05:43:12 45° SSW 05:43:52 40° SSE
STARLINK-1028 4.0 05:39:54 10° NW 05:43:56 47° NE 05:44:12 46° NE
STARLINK-72 3.6 05:40:37 10° NW 05:44:26 56° NE 05:44:35 56° NE
Cosmos 2360 Rocket 4.2 05:41:09 10° W 05:45:37 23° SW 05:50:05 10° S
STARLINK-1277 3.9 05:42:24 10° WNW 05:46:34 61° SSW 05:47:22 50° SSE
Cosmos 2056 Rocket 3.8 05:41:37 10° SSW 05:47:00 71° WNW 05:52:14 10° NNE
STARLINK-59 3.5 05:43:55 10° NW 05:47:46 62° NE 05:47:48 62° NE
Tsikada Rocket 4.5 05:42:37 10° S 05:48:35 38° ESE 05:48:35 38° ESE
STARLINK-1021 3.9 05:44:49 10° NW 05:48:53 51° NE 05:48:58 51° NE
STARLINK-56 3.5 05:45:29 10° NW 05:49:17 61° NNE 05:49:17 61° NNE
ATLAS 2AS CENTAUR R/B 3.1 05:43:35 10° SSW 05:49:44 41° SE 05:51:06 37° ESE
STARLINK-73 3.5 05:47:07 10° NW 05:50:52 62° NNE 05:50:52 62° NNE
STARLINK-1276 3.9 05:47:25 10° W 05:51:35 58° SSW 05:52:09 52° SSE
STARLINK-1291 4.5 05:49:10 10° WSW 05:51:51 30° SSW 05:51:51 30° SSW
STARLINK-38 3.5 05:48:46 10° NW 05:52:27 64° NNE 05:52:27 64° NNE
STARLINK-1317 4.5 05:50:08 10° WSW 05:53:10 32° SSW 05:53:10 32° SSW
CZ-2C R/B 2.9 05:53:39 46° ESE 05:53:39 46° ESE 05:58:41 10° S
STARLINK-1019 3.8 05:49:45 10° NW 05:53:46 55° NNE 05:53:46 55° NNE
STARLINK-24 3.5 05:50:08 10° NW 05:54:11 70° NNE 05:54:11 70° NNE
STARLINK-65 3.5 05:50:24 10° NW 05:54:03 64° N 05:54:03 64° N
STARLINK-53 3.5 05:52:18 10° NW 05:55:57 68° N 05:55:57 68° N
STARLINK-1305 3.9 05:52:26 10° W 05:56:35 56° SSW 05:56:57 54° S
STARLINK-25 3.7 05:53:53 10° NW 05:57:08 59° NNW 05:57:08 59° NNW
STARLINK-1012 3.8 05:54:41 10° NW 05:58:32 58° NNE 05:58:32 58° NNE
Cosmos 1818 3.5 05:53:38 10° NW 05:59:03 89° NE 06:00:42 47° SE
STARLINK-64 4.2 05:55:45 10° W 05:58:52 39° SSW 05:58:52 39° SSW
STARLINK-1278 4.1 05:56:11 10° W 06:00:25 51° SSW 06:00:43 50° S
STARLINK-1262 4.0 05:57:27 10° W 06:01:35 53° SSW 06:01:44 53° S
STARLINK-1280 4.2 05:58:03 10° W 06:02:16 50° SSW 06:02:29 50° S
YAOGAN 6 3.0 06:03:03 58° NNW 06:03:03 58° NNW 06:06:05 10° NNW
Cosmos 1633 Rocket 3.8 05:58:30 10° NNW 06:02:54 55° WSW 06:06:32 15° S
SeaSat 1 4.5 06:07:27 15° S 06:07:27 15° S 06:08:44 10° S
STARLINK-1300 4.1 06:02:25 10° W 06:06:29 51° SSW 06:06:29 51° SSW
Meteor 1-25 Rocket 4.1 06:01:08 10° N 06:06:39 68° E 06:07:53 52° SE
Meteor 1-18 Rocket 4.2 06:02:26 10° S 06:08:02 60° ESE 06:08:02 60° ESE
Cosmos 2100 Rocket 3.9 06:02:27 10° N 06:08:41 86° W 06:14:58 10° S
STARLINK-1026 4.0 06:04:35 10° NW 06:08:07 58° NNW 06:08:07 58° NNW
Cosmos 2219 Rocket 3.6 06:03:34 10° WNW 06:08:46 35° SW 06:13:00 15° S
STARLINK-50 3.9 06:06:15 10° WNW 06:09:41 61° NW 06:09:41 61° NW
STARLINK-1338 4.3 06:07:27 10° WSW 06:10:05 44° WSW 06:10:05 44° WSW
STARLINK-1295 4.3 06:07:29 10° W 06:11:18 48° SSW 06:11:18 48° SSW
STARLINK-1013 4.2 06:09:31 10° NW 06:12:52 54° NNW 06:12:52 54° NNW
STARLINK-1287 4.5 06:12:28 10° W 06:16:04 45° SW 06:16:04 45° SW
Cosmos 1452 Rocket 3.4 06:12:09 10° SSW 06:17:28 81° ESE 06:17:28 81° ESE
STARLINK-1009 4.3 06:14:29 10° NW 06:17:39 50° NW 06:17:39 50° NW
Cosmos 1420 Rocket 4.3 06:15:29 10° SSW 06:20:51 69° WNW 06:24:07 24° N
Cosmos 1980 4.1 06:17:53 10° NW 06:23:31 60° WSW 06:25:39 37° S
CZ-4C R/B 4.1 06:20:05 10° SW 06:24:33 19° S 06:24:38 19° S
Envisat 3.6 06:21:20 19° S 06:24:55 55° WSW 06:29:55 10° NNW
Cosmos 2061 Rocket 3.8 06:19:11 10° N 06:25:28 83° E 06:28:12 37° SSE
Feng Yun 1-1 Rocket 4.2 06:27:58 61° S 06:28:56 81° WSW 06:34:23 10° NNW
Meteor 1-20 Rocket 4.3 06:24:42 10° NNW 06:30:29 79° WSW 06:32:30 43° S
Cosmos 2297 3.7 06:25:24 10° SSW 06:30:32 72° S 06:30:32 72° S
Helios 1A Rocket 4.2 06:33:10 39° WNW 06:33:10 39° WNW 06:36:03 10° NW
USA 234 4.0 06:34:22 37° SSE 06:35:39 41° S 06:41:45 10° WSW
Cosmos 2016 Rocket 4.0 06:29:42 10° N 06:36:01 84° W 06:39:14 32° S
Cosmos 1864 Rocket 4.4 06:30:41 10° N 06:36:18 75° NNE 06:36:18 75° NNE
DMSP B5D2-2 4.4 06:42:43 61° SW 06:42:43 61° SW 06:47:19 10° SSW
Lacrosse 5 rocket 3.4 06:38:32 10° NW 06:40:18 24° NW 06:40:18 24° NW
Cosmos 1816 Rocket 4.5 06:38:16 10° S 06:44:43 83° W 06:45:21 73° NNW
COSMOS 2455 4.4 06:39:19 10° SSW 06:42:03 23° S 06:42:03 23° S
ATLAS 5 CENTAUR R/B 2.7 06:38:27 10° NW 06:45:35 71° SW 06:46:25 64° S
Cosmos 371 Rocket 4.4 06:44:10 10° SSW 06:47:37 40° WSW 06:47:37 40° WSW
Cosmos 2237 Rocket 3.2 06:46:25 10° NW 06:51:47 41° SW 06:52:55 37° SSW
Cosmos 1943 Rocket 3.8 06:46:44 10° SSW 06:48:59 24° SSW 06:48:59 24° SSW
Cosmos 2369 Rocket 4.0 06:48:31 10° SSW 06:50:30 21° S 06:50:30 21° S
ATLAS CENTAUR R/B 4.1 06:53:50 10° SSW 06:54:47 16° SSW 06:54:47 16° SSW
SL-16 R/B 3.6 07:01:26 10° NNW 07:04:24 32° NW 07:04:24 32° NW
BREEZE M DEB (TANK) 4.1 06:54:49 10° WSW 07:13:12 72° NW 07:13:12 72° NW
NOSS 3-4 (A) 4.1 07:07:31 10° SW 07:13:17 58° SW 07:13:17 58° SW
NOSS 3-4 (C) 4.1 07:07:37 10° SW 07:13:20 58° SW 07:13:20 58° SW
ATLAS 2AS CENTAUR R/B 3.7 07:34:22 10° SW 07:38:35 40° WSW 07:38:35 40° WSW
